Year,Month,Day,Hour,Minute,Value (Times are PST for temperature in C)
2014,08,24,00,00,15.20
2014,08,24,00,01,15.20
2014,08,24,00,02,15.20
2014,08,24,00,03,15.20
2014,08,24,00,04,15.10
2014,08,24,00,05,15.10
2014,08,24,00,06,15.10
2014,08,24,00,07,15.10
2014,08,24,00,08,15.10
2014,08,24,00,09,15.00
2014,08,24,00,10,15.00
2014,08,24,00,11,14.90
2014,08,24,00,12,14.90
2014,08,24,00,13,14.90
2014,08,24,00,14,14.80
2014,08,24,00,15,14.80
2014,08,24,00,16,14.80
2014,08,24,00,17,14.70
2014,08,24,00,18,14.70
2014,08,24,00,19,14.60
2014,08,24,00,20,14.60
2014,08,24,00,21,14.50
2014,08,24,00,22,14.50
2014,08,24,00,23,14.40
2014,08,24,00,24,14.40
2014,08,24,00,25,14.30
2014,08,24,00,26,14.30
2014,08,24,00,27,14.30
2014,08,24,00,28,14.20
2014,08,24,00,29,14.20
2014,08,24,00,30,14.10
2014,08,24,00,31,14.00
2014,08,24,00,32,14.00
2014,08,24,00,33,13.90
2014,08,24,00,34,13.90
2014,08,24,00,35,13.80
2014,08,24,00,36,13.80
2014,08,24,00,37,13.70
2014,08,24,00,38,13.70
2014,08,24,00,39,13.70
2014,08,24,00,40,13.60
2014,08,24,00,41,13.60
2014,08,24,00,42,13.50
2014,08,24,00,43,13.50
2014,08,24,00,44,13.40
2014,08,24,00,45,13.40
2014,08,24,00,46,13.40
2014,08,24,00,47,13.30
2014,08,24,00,48,13.30
2014,08,24,00,49,13.30
2014,08,24,00,50,13.30
2014,08,24,00,51,13.30
2014,08,24,00,52,13.20
2014,08,24,00,53,13.20
2014,08,24,00,54,13.20
2014,08,24,00,55,13.20
2014,08,24,00,56,13.10
2014,08,24,00,57,13.10
2014,08,24,00,58,13.10
2014,08,24,00,59,13.10
2014,08,24,01,00,13.10
2014,08,24,01,01,13.00
2014,08,24,01,02,13.00
2014,08,24,01,03,13.00
2014,08,24,01,04,13.00
2014,08,24,01,05,12.90
2014,08,24,01,06,12.90
2014,08,24,01,07,12.90
2014,08,24,01,08,12.90
2014,08,24,01,09,12.90
2014,08,24,01,10,12.90
2014,08,24,01,11,12.90
2014,08,24,01,12,12.80
2014,08,24,01,13,12.80
2014,08,24,01,14,12.80
2014,08,24,01,15,12.80
2014,08,24,01,16,12.80
2014,08,24,01,17,12.80
2014,08,24,01,18,12.80
2014,08,24,01,19,12.80
2014,08,24,01,20,12.80
2014,08,24,01,21,12.80
2014,08,24,01,22,12.80
2014,08,24,01,23,12.70
2014,08,24,01,24,12.70
2014,08,24,01,25,12.70
2014,08,24,01,26,12.70
2014,08,24,01,27,12.70
2014,08,24,01,28,12.70
2014,08,24,01,29,12.70
2014,08,24,01,30,12.60
2014,08,24,01,31,12.60
2014,08,24,01,32,12.60
2014,08,24,01,33,12.60
2014,08,24,01,34,12.60
2014,08,24,01,35,12.60
2014,08,24,01,36,12.60
2014,08,24,01,37,12.50
2014,08,24,01,38,12.50
2014,08,24,01,39,12.50
2014,08,24,01,40,12.50
2014,08,24,01,41,12.40
2014,08,24,01,42,12.40
2014,08,24,01,43,12.40
2014,08,24,01,44,12.40
2014,08,24,01,45,12.40
2014,08,24,01,46,12.40
2014,08,24,01,47,12.40
2014,08,24,01,48,12.30
2014,08,24,01,49,12.30
2014,08,24,01,50,12.30
2014,08,24,01,51,12.30
2014,08,24,01,52,12.30
2014,08,24,01,53,12.30
2014,08,24,01,54,12.30
2014,08,24,01,55,12.30
2014,08,24,01,56,12.30
2014,08,24,01,57,12.30
2014,08,24,01,58,12.30
2014,08,24,01,59,12.20
2014,08,24,02,00,12.20
2014,08,24,02,01,12.20
2014,08,24,02,02,12.20
2014,08,24,02,03,12.20
2014,08,24,02,04,12.20
2014,08,24,02,05,12.20
2014,08,24,02,06,12.20
2014,08,24,02,07,12.20
2014,08,24,02,08,12.20
2014,08,24,02,09,12.20
2014,08,24,02,10,12.20
2014,08,24,02,11,12.20
2014,08,24,02,12,12.20
2014,08,24,02,13,12.20
2014,08,24,02,14,12.20
2014,08,24,02,15,12.20
2014,08,24,02,16,12.20
2014,08,24,02,17,12.20
2014,08,24,02,18,12.20
2014,08,24,02,19,12.20
2014,08,24,02,20,12.20
2014,08,24,02,21,12.20
2014,08,24,02,22,12.20
2014,08,24,02,23,12.20
2014,08,24,02,24,12.10
2014,08,24,02,25,12.10
2014,08,24,02,26,12.10
2014,08,24,02,27,12.10
2014,08,24,02,28,12.10
2014,08,24,02,29,12.10
2014,08,24,02,30,12.10
2014,08,24,02,31,12.10
2014,08,24,02,32,12.10
2014,08,24,02,33,12.10
2014,08,24,02,34,12.10
2014,08,24,02,35,12.10
2014,08,24,02,36,12.10
2014,08,24,02,37,12.10
2014,08,24,02,38,12.10
2014,08,24,02,39,12.10
2014,08,24,02,40,12.10
2014,08,24,02,41,12.10
2014,08,24,02,42,12.10
2014,08,24,02,43,12.10
2014,08,24,02,44,12.10
2014,08,24,02,45,12.10
2014,08,24,02,46,12.10
2014,08,24,02,47,12.10
2014,08,24,02,48,12.10
2014,08,24,02,49,12.10
2014,08,24,02,50,12.10
2014,08,24,02,51,12.10
2014,08,24,02,52,12.10
2014,08,24,02,53,12.10
2014,08,24,02,54,12.10
2014,08,24,02,55,12.10
2014,08,24,02,56,12.10
2014,08,24,02,57,12.10
2014,08,24,02,58,12.10
2014,08,24,02,59,12.10
2014,08,24,03,00,12.10
2014,08,24,03,01,12.10
2014,08,24,03,02,12.10
2014,08,24,03,03,12.10
2014,08,24,03,04,12.10
2014,08,24,03,05,12.10
2014,08,24,03,06,12.10
2014,08,24,03,07,12.10
2014,08,24,03,08,12.10
2014,08,24,03,09,12.10
2014,08,24,03,10,12.10
2014,08,24,03,11,12.10
2014,08,24,03,12,12.10
2014,08,24,03,13,12.10
2014,08,24,03,14,12.10
2014,08,24,03,15,12.10
2014,08,24,03,16,12.10
2014,08,24,03,17,12.00
2014,08,24,03,18,12.00
2014,08,24,03,19,12.00
2014,08,24,03,20,12.00
2014,08,24,03,21,12.00
2014,08,24,03,22,12.00
2014,08,24,03,23,12.00
2014,08,24,03,24,12.00
2014,08,24,03,25,11.90
2014,08,24,03,26,11.90
2014,08,24,03,27,11.90
2014,08,24,03,28,11.90
2014,08,24,03,29,11.90
2014,08,24,03,30,11.90
2014,08,24,03,31,11.90
2014,08,24,03,32,11.90
2014,08,24,03,33,11.90
2014,08,24,03,34,11.80
2014,08,24,03,35,11.80
2014,08,24,03,36,11.80
2014,08,24,03,37,11.80
2014,08,24,03,38,11.80
2014,08,24,03,39,11.80
2014,08,24,03,40,11.80
2014,08,24,03,41,11.80
2014,08,24,03,42,11.80
2014,08,24,03,43,11.80
2014,08,24,03,44,11.70
2014,08,24,03,45,11.70
2014,08,24,03,46,11.70
2014,08,24,03,47,11.70
2014,08,24,03,48,11.70
2014,08,24,03,49,11.70
2014,08,24,03,50,11.70
2014,08,24,03,51,11.70
2014,08,24,03,52,11.70
2014,08,24,03,53,11.60
2014,08,24,03,54,11.60
2014,08,24,03,55,11.60
2014,08,24,03,56,11.60
2014,08,24,03,57,11.60
2014,08,24,03,58,11.60
2014,08,24,03,59,11.60
2014,08,24,04,00,11.60
2014,08,24,04,01,11.50
2014,08,24,04,02,11.50
2014,08,24,04,03,11.50
2014,08,24,04,04,11.50
2014,08,24,04,05,11.40
2014,08,24,04,06,11.40
2014,08,24,04,07,11.40
2014,08,24,04,08,11.40
2014,08,24,04,09,11.40
2014,08,24,04,10,11.40
2014,08,24,04,11,11.40
2014,08,24,04,12,11.40
2014,08,24,04,13,11.30
2014,08,24,04,14,11.30
2014,08,24,04,15,11.30
2014,08,24,04,16,11.30
2014,08,24,04,17,11.30
2014,08,24,04,18,11.30
2014,08,24,04,19,11.30
2014,08,24,04,20,11.30
2014,08,24,04,21,11.30
2014,08,24,04,22,11.30
2014,08,24,04,23,11.30
2014,08,24,04,24,11.30
2014,08,24,04,25,11.20
2014,08,24,04,26,11.20
2014,08,24,04,27,11.20
2014,08,24,04,28,11.20
2014,08,24,04,29,11.20
2014,08,24,04,30,11.20
2014,08,24,04,31,11.20
2014,08,24,04,32,11.20
2014,08,24,04,33,11.20
2014,08,24,04,34,11.20
2014,08,24,04,35,11.20
2014,08,24,04,36,11.20
2014,08,24,04,37,11.20
2014,08,24,04,38,11.20
2014,08,24,04,39,11.20
2014,08,24,04,40,11.20
2014,08,24,04,41,11.20
2014,08,24,04,42,11.10
2014,08,24,04,43,11.10
2014,08,24,04,44,11.10
2014,08,24,04,45,11.10
2014,08,24,04,46,11.10
2014,08,24,04,47,11.10
2014,08,24,04,48,11.10
2014,08,24,04,49,11.10
2014,08,24,04,50,11.10
2014,08,24,04,51,11.10
2014,08,24,04,52,11.10
2014,08,24,04,53,11.10
2014,08,24,04,54,11.00
2014,08,24,04,55,11.00
2014,08,24,04,56,11.00
2014,08,24,04,57,11.00
2014,08,24,04,58,10.90
2014,08,24,04,59,10.90
2014,08,24,05,00,10.90
2014,08,24,05,01,11.00
2014,08,24,05,02,11.00
2014,08,24,05,03,11.00
2014,08,24,05,04,10.90
2014,08,24,05,05,10.90
2014,08,24,05,06,10.90
2014,08,24,05,07,10.90
2014,08,24,05,08,10.90
2014,08,24,05,09,10.90
2014,08,24,05,10,10.90
2014,08,24,05,11,10.90
2014,08,24,05,12,10.90
2014,08,24,05,13,10.90
2014,08,24,05,14,10.90
2014,08,24,05,15,10.90
2014,08,24,05,16,10.90
2014,08,24,05,17,10.90
2014,08,24,05,18,10.90
2014,08,24,05,19,10.90
2014,08,24,05,20,10.90
2014,08,24,05,21,10.90
2014,08,24,05,22,10.90
2014,08,24,05,23,10.90
2014,08,24,05,24,10.80
2014,08,24,05,25,10.80
2014,08,24,05,26,10.80
2014,08,24,05,27,10.80
2014,08,24,05,28,10.80
2014,08,24,05,29,10.80
2014,08,24,05,30,10.80
2014,08,24,05,31,10.80
2014,08,24,05,32,10.80
2014,08,24,05,33,10.80
2014,08,24,05,34,10.80
2014,08,24,05,35,10.70
2014,08,24,05,36,10.70
2014,08,24,05,37,10.70
2014,08,24,05,38,10.70
2014,08,24,05,39,10.70
2014,08,24,05,40,10.70
2014,08,24,05,41,10.70
2014,08,24,05,42,10.70
2014,08,24,05,43,10.70
2014,08,24,05,44,10.70
2014,08,24,05,45,10.60
2014,08,24,05,46,10.60
2014,08,24,05,47,10.60
2014,08,24,05,48,10.60
2014,08,24,05,49,10.60
2014,08,24,05,50,10.60
2014,08,24,05,51,10.60
2014,08,24,05,52,10.60
2014,08,24,05,53,10.60
2014,08,24,05,54,10.60
2014,08,24,05,55,10.60
2014,08,24,05,56,10.60
2014,08,24,05,57,10.60
2014,08,24,05,58,10.60
2014,08,24,05,59,10.60
2014,08,24,06,00,10.60
2014,08,24,06,01,10.60
2014,08,24,06,02,10.60
2014,08,24,06,03,10.60
2014,08,24,06,04,10.60
2014,08,24,06,05,10.60
2014,08,24,06,06,10.60
2014,08,24,06,07,10.60
2014,08,24,06,08,10.60
2014,08,24,06,09,10.50
2014,08,24,06,10,10.50
2014,08,24,06,11,10.50
2014,08,24,06,12,10.50
2014,08,24,06,13,10.40
2014,08,24,06,14,10.40
2014,08,24,06,15,10.40
2014,08,24,06,16,10.40
2014,08,24,06,17,10.40
2014,08,24,06,18,10.30
2014,08,24,06,19,10.30
2014,08,24,06,20,10.30
2014,08,24,06,21,10.30
2014,08,24,06,22,10.30
2014,08,24,06,23,10.30
2014,08,24,06,24,10.30
2014,08,24,06,25,10.30
2014,08,24,06,26,10.30
2014,08,24,06,27,10.30
2014,08,24,06,28,10.30
2014,08,24,06,29,10.30
2014,08,24,06,30,10.30
2014,08,24,06,31,10.30
2014,08,24,06,32,10.30
2014,08,24,06,33,10.30
2014,08,24,06,34,10.30
2014,08,24,06,35,10.30
2014,08,24,06,36,10.30
2014,08,24,06,37,10.30
2014,08,24,06,38,10.40
2014,08,24,06,39,10.40
2014,08,24,06,40,10.40
2014,08,24,06,41,10.40
2014,08,24,06,42,10.40
2014,08,24,06,43,10.40
2014,08,24,06,44,10.40
2014,08,24,06,45,10.40
2014,08,24,06,46,10.50
2014,08,24,06,47,10.50
2014,08,24,06,48,10.50
2014,08,24,06,49,10.60
2014,08,24,06,50,10.60
2014,08,24,06,51,10.60
2014,08,24,06,52,10.60
2014,08,24,06,53,10.60
2014,08,24,06,54,10.60
2014,08,24,06,55,10.60
2014,08,24,06,56,10.60
2014,08,24,06,57,10.70
2014,08,24,06,58,10.70
2014,08,24,06,59,10.70
2014,08,24,07,00,10.70
2014,08,24,07,01,10.70
2014,08,24,07,02,10.70
2014,08,24,07,03,10.70
2014,08,24,07,04,10.70
2014,08,24,07,05,10.70
2014,08,24,07,06,10.70
2014,08,24,07,07,10.70
2014,08,24,07,08,10.80
2014,08,24,07,09,10.80
2014,08,24,07,10,10.80
2014,08,24,07,11,10.80
2014,08,24,07,12,10.80
2014,08,24,07,13,10.80
2014,08,24,07,14,10.80
2014,08,24,07,15,10.80
2014,08,24,07,16,10.80
2014,08,24,07,17,10.90
2014,08,24,07,18,10.90
2014,08,24,07,19,10.90
2014,08,24,07,20,10.90
2014,08,24,07,21,10.90
2014,08,24,07,22,11.00
2014,08,24,07,23,11.00
2014,08,24,07,24,11.10
2014,08,24,07,25,11.10
2014,08,24,07,26,11.10
2014,08,24,07,27,11.20
2014,08,24,07,28,11.20
2014,08,24,07,29,11.20
2014,08,24,07,30,11.20
2014,08,24,07,31,11.30
2014,08,24,07,32,11.30
2014,08,24,07,33,11.30
2014,08,24,07,34,11.30
2014,08,24,07,35,11.40
2014,08,24,07,36,11.40
2014,08,24,07,37,11.50
2014,08,24,07,38,11.50
2014,08,24,07,39,11.60
2014,08,24,07,40,11.60
2014,08,24,07,41,11.60
2014,08,24,07,42,11.70
2014,08,24,07,43,11.70
2014,08,24,07,44,11.70
2014,08,24,07,45,11.80
2014,08,24,07,46,11.80
2014,08,24,07,47,11.80
2014,08,24,07,48,11.90
2014,08,24,07,49,11.90
2014,08,24,07,50,12.00
2014,08,24,07,51,12.00
2014,08,24,07,52,12.00
2014,08,24,07,53,12.10
2014,08,24,07,54,12.10
2014,08,24,07,55,12.10
2014,08,24,07,56,12.10
2014,08,24,07,57,12.10
2014,08,24,07,58,12.10
2014,08,24,07,59,12.10
2014,08,24,08,00,12.20
2014,08,24,08,01,12.20
2014,08,24,08,02,12.20
2014,08,24,08,03,12.30
2014,08,24,08,04,12.30
2014,08,24,08,05,12.30
2014,08,24,08,06,12.30
2014,08,24,08,07,12.40
2014,08,24,08,08,12.40
2014,08,24,08,09,12.40
2014,08,24,08,10,12.50
2014,08,24,08,11,12.50
2014,08,24,08,12,12.60
2014,08,24,08,13,12.60
2014,08,24,08,14,12.60
2014,08,24,08,15,12.70
2014,08,24,08,16,12.70
2014,08,24,08,17,12.70
2014,08,24,08,18,12.70
2014,08,24,08,19,12.70
2014,08,24,08,20,12.70
2014,08,24,08,21,12.70
2014,08,24,08,22,12.80
2014,08,24,08,23,12.80
2014,08,24,08,24,12.80
2014,08,24,08,25,12.90
2014,08,24,08,26,12.90
2014,08,24,08,27,12.90
2014,08,24,08,28,13.00
2014,08,24,08,29,13.00
2014,08,24,08,30,13.00
2014,08,24,08,31,13.00
2014,08,24,08,32,13.10
2014,08,24,08,33,13.10
2014,08,24,08,34,13.10
2014,08,24,08,35,13.10
2014,08,24,08,36,13.20
2014,08,24,08,37,13.20
2014,08,24,08,38,13.20
2014,08,24,08,39,13.20
2014,08,24,08,40,13.20
2014,08,24,08,41,13.20
2014,08,24,08,42,13.30
2014,08,24,08,43,13.30
2014,08,24,08,44,13.30
2014,08,24,08,45,13.30
2014,08,24,08,46,13.30
2014,08,24,08,47,13.40
2014,08,24,08,48,13.40
2014,08,24,08,49,13.40
2014,08,24,08,50,13.50
2014,08,24,08,51,13.50
2014,08,24,08,52,13.60
2014,08,24,08,53,13.70
2014,08,24,08,54,13.70
2014,08,24,08,55,13.80
2014,08,24,08,56,13.80
2014,08,24,08,57,13.90
2014,08,24,08,58,13.90
2014,08,24,08,59,14.00
2014,08,24,09,00,14.10
2014,08,24,09,01,14.20
2014,08,24,09,02,14.20
2014,08,24,09,03,14.30
2014,08,24,09,04,14.30
2014,08,24,09,05,14.30
2014,08,24,09,06,14.40
2014,08,24,09,07,14.40
2014,08,24,09,08,14.50
2014,08,24,09,09,14.60
2014,08,24,09,10,14.70
2014,08,24,09,11,14.80
2014,08,24,09,12,14.90
2014,08,24,09,13,14.90
2014,08,24,09,14,15.00
2014,08,24,09,15,15.10
2014,08,24,09,16,15.20
2014,08,24,09,17,15.30
2014,08,24,09,18,15.30
2014,08,24,09,19,15.40
2014,08,24,09,20,15.40
2014,08,24,09,21,15.40
2014,08,24,09,22,15.50
2014,08,24,09,23,15.50
2014,08,24,09,24,15.50
2014,08,24,09,25,15.50
2014,08,24,09,26,15.50
2014,08,24,09,27,15.50
2014,08,24,09,28,15.60
2014,08,24,09,29,15.50
2014,08,24,09,30,15.50
2014,08,24,09,31,15.50
2014,08,24,09,32,15.50
2014,08,24,09,33,15.40
2014,08,24,09,34,15.40
2014,08,24,09,35,15.40
2014,08,24,09,36,15.40
2014,08,24,09,37,15.40
2014,08,24,09,38,15.50
2014,08,24,09,39,15.50
2014,08,24,09,40,15.60
2014,08,24,09,41,15.60
2014,08,24,09,42,15.60
2014,08,24,09,43,15.60
2014,08,24,09,44,15.70
2014,08,24,09,45,15.70
2014,08,24,09,46,15.70
2014,08,24,09,47,15.80
2014,08,24,09,48,15.80
2014,08,24,09,49,15.90
2014,08,24,09,50,15.90
2014,08,24,09,51,16.00
2014,08,24,09,52,16.00
2014,08,24,09,53,16.10
2014,08,24,09,54,16.20
2014,08,24,09,55,16.30
2014,08,24,09,56,16.30
2014,08,24,09,57,16.30
2014,08,24,09,58,16.30
2014,08,24,09,59,16.40
2014,08,24,10,00,16.40
2014,08,24,10,01,16.50
2014,08,24,10,02,16.50
2014,08,24,10,03,16.50
2014,08,24,10,04,16.60
2014,08,24,10,05,16.70
2014,08,24,10,06,16.70
2014,08,24,10,07,16.80
2014,08,24,10,08,16.80
2014,08,24,10,09,16.90
2014,08,24,10,10,16.90
2014,08,24,10,11,16.90
2014,08,24,10,12,17.00
2014,08,24,10,13,17.10
2014,08,24,10,14,17.20
2014,08,24,10,15,17.20
2014,08,24,10,16,17.20
2014,08,24,10,17,17.20
2014,08,24,10,18,17.20
2014,08,24,10,19,17.30
2014,08,24,10,20,17.30
2014,08,24,10,21,17.30
2014,08,24,10,22,17.30
2014,08,24,10,23,17.30
2014,08,24,10,24,17.30
2014,08,24,10,25,17.30
2014,08,24,10,26,17.30
2014,08,24,10,27,17.30
2014,08,24,10,28,17.30
2014,08,24,10,29,17.30
2014,08,24,10,30,17.30
2014,08,24,10,31,17.30
2014,08,24,10,32,17.30
2014,08,24,10,33,17.40
2014,08,24,10,34,17.40
2014,08,24,10,35,17.40
2014,08,24,10,36,17.50
2014,08,24,10,37,17.50
2014,08,24,10,38,17.60
2014,08,24,10,39,17.60
2014,08,24,10,40,17.60
2014,08,24,10,41,17.70
2014,08,24,10,42,17.60
2014,08,24,10,43,17.50
2014,08,24,10,44,17.50
2014,08,24,10,45,17.40
2014,08,24,10,46,17.30
2014,08,24,10,47,17.30
2014,08,24,10,48,17.40
2014,08,24,10,49,17.40
2014,08,24,10,50,17.40
2014,08,24,10,51,17.40
2014,08,24,10,52,17.30
2014,08,24,10,53,17.20
2014,08,24,10,54,17.10
2014,08,24,10,55,17.00
2014,08,24,10,56,16.90
2014,08,24,10,57,16.90
2014,08,24,10,58,16.80
2014,08,24,10,59,16.80
2014,08,24,11,00,16.80
2014,08,24,11,01,16.70
2014,08,24,11,02,16.70
2014,08,24,11,03,16.70
2014,08,24,11,04,16.70
2014,08,24,11,05,16.70
2014,08,24,11,06,16.70
2014,08,24,11,07,16.80
2014,08,24,11,08,16.80
2014,08,24,11,09,16.80
2014,08,24,11,10,16.80
2014,08,24,11,11,16.80
2014,08,24,11,12,16.90
2014,08,24,11,13,17.00
2014,08,24,11,14,17.00
2014,08,24,11,15,17.10
2014,08,24,11,16,17.10
2014,08,24,11,17,17.20
2014,08,24,11,18,17.30
2014,08,24,11,19,17.30
2014,08,24,11,20,17.50
2014,08,24,11,21,17.60
2014,08,24,11,22,17.70
2014,08,24,11,23,17.80
2014,08,24,11,24,18.00
2014,08,24,11,25,18.10
2014,08,24,11,26,18.20
2014,08,24,11,27,18.30
2014,08,24,11,28,18.40
2014,08,24,11,29,18.50
2014,08,24,11,30,18.50
2014,08,24,11,31,18.50
2014,08,24,11,32,18.50
2014,08,24,11,33,18.50
2014,08,24,11,34,18.50
2014,08,24,11,35,18.50
2014,08,24,11,36,18.50
2014,08,24,11,37,18.60
2014,08,24,11,38,18.60
2014,08,24,11,39,18.70
2014,08,24,11,40,18.70
2014,08,24,11,41,18.70
2014,08,24,11,42,18.70
2014,08,24,11,43,18.80
2014,08,24,11,44,18.90
2014,08,24,11,45,18.90
2014,08,24,11,46,19.00
2014,08,24,11,47,19.10
2014,08,24,11,48,19.10
2014,08,24,11,49,19.10
2014,08,24,11,50,19.20
2014,08,24,11,51,19.30
2014,08,24,11,52,19.40
2014,08,24,11,53,19.40
2014,08,24,11,54,19.50
2014,08,24,11,55,19.50
2014,08,24,11,56,19.60
2014,08,24,11,57,19.60
2014,08,24,11,58,19.60
2014,08,24,11,59,19.60
2014,08,24,12,00,19.60
2014,08,24,12,01,19.60
2014,08,24,12,02,19.60
2014,08,24,12,03,19.70
2014,08,24,12,04,19.70
2014,08,24,12,05,19.70
2014,08,24,12,06,19.80
2014,08,24,12,07,19.80
2014,08,24,12,08,19.80
2014,08,24,12,09,19.80
2014,08,24,12,10,19.80
2014,08,24,12,11,19.80
2014,08,24,12,12,19.80
2014,08,24,12,13,19.80
2014,08,24,12,14,19.80
2014,08,24,12,15,19.80
2014,08,24,12,16,19.80
2014,08,24,12,17,19.80
2014,08,24,12,18,19.80
2014,08,24,12,19,19.80
2014,08,24,12,20,19.80
2014,08,24,12,21,19.80
2014,08,24,12,22,19.90
2014,08,24,12,23,19.90
2014,08,24,12,24,19.90
2014,08,24,12,25,19.90
2014,08,24,12,26,19.90
2014,08,24,12,27,19.90
2014,08,24,12,28,19.90
2014,08,24,12,29,19.90
2014,08,24,12,30,19.90
2014,08,24,12,31,19.90
2014,08,24,12,32,19.80
2014,08,24,12,33,19.80
2014,08,24,12,34,19.80
2014,08,24,12,35,19.80
2014,08,24,12,36,19.80
2014,08,24,12,37,19.70
2014,08,24,12,38,19.70
2014,08,24,12,39,19.70
2014,08,24,12,40,19.60
2014,08,24,12,41,19.60
2014,08,24,12,42,19.70
2014,08,24,12,43,19.70
2014,08,24,12,44,19.70
2014,08,24,12,45,19.70
2014,08,24,12,46,19.70
2014,08,24,12,47,19.70
2014,08,24,12,48,19.60
2014,08,24,12,49,19.60
2014,08,24,12,50,19.60
2014,08,24,12,51,19.50
2014,08,24,12,52,19.50
2014,08,24,12,53,19.40
2014,08,24,12,54,19.30
2014,08,24,12,55,19.30
2014,08,24,12,56,19.30
2014,08,24,12,57,19.30
2014,08,24,12,58,19.30
2014,08,24,12,59,19.40
2014,08,24,13,00,19.50
2014,08,24,13,01,19.50
2014,08,24,13,02,19.60
2014,08,24,13,03,19.60
2014,08,24,13,04,19.60
2014,08,24,13,05,19.70
2014,08,24,13,06,19.70
2014,08,24,13,07,19.70
2014,08,24,13,08,19.60
2014,08,24,13,09,19.70
2014,08,24,13,10,19.70
2014,08,24,13,11,19.60
2014,08,24,13,12,19.60
2014,08,24,13,13,19.50
2014,08,24,13,14,19.50
2014,08,24,13,15,19.40
2014,08,24,13,16,19.40
2014,08,24,13,17,19.40
2014,08,24,13,18,19.40
2014,08,24,13,19,19.30
2014,08,24,13,20,19.30
2014,08,24,13,21,19.20
2014,08,24,13,22,19.10
2014,08,24,13,23,19.00
2014,08,24,13,24,18.90
2014,08,24,13,25,18.90
2014,08,24,13,26,18.80
2014,08,24,13,27,18.70
2014,08,24,13,28,18.70
2014,08,24,13,29,18.60
2014,08,24,13,30,18.60
2014,08,24,13,31,18.70
2014,08,24,13,32,18.70
2014,08,24,13,33,18.80
2014,08,24,13,34,18.80
2014,08,24,13,35,18.90
2014,08,24,13,36,19.00
2014,08,24,13,37,19.10
2014,08,24,13,38,19.10
2014,08,24,13,39,19.00
2014,08,24,13,40,18.90
2014,08,24,13,41,18.90
2014,08,24,13,42,18.80
2014,08,24,13,43,18.80
2014,08,24,13,44,18.80
2014,08,24,13,45,18.80
2014,08,24,13,46,18.80
2014,08,24,13,47,18.80
2014,08,24,13,48,18.70
2014,08,24,13,49,18.70
2014,08,24,13,50,18.70
2014,08,24,13,51,18.80
2014,08,24,13,52,18.80
2014,08,24,13,53,18.80
2014,08,24,13,54,18.90
2014,08,24,13,55,18.90
2014,08,24,13,56,19.00
2014,08,24,13,57,19.10
2014,08,24,13,58,19.10
2014,08,24,13,59,19.10
2014,08,24,14,00,19.00
2014,08,24,14,01,18.90
2014,08,24,14,02,18.90
2014,08,24,14,03,18.90
2014,08,24,14,04,19.00
2014,08,24,14,05,19.00
2014,08,24,14,06,19.00
2014,08,24,14,07,19.00
2014,08,24,14,08,19.00
2014,08,24,14,09,19.10
2014,08,24,14,10,19.20
2014,08,24,14,11,19.20
2014,08,24,14,12,19.30
2014,08,24,14,13,19.30
2014,08,24,14,14,19.40
2014,08,24,14,15,19.50
2014,08,24,14,16,19.50
2014,08,24,14,17,19.60
2014,08,24,14,18,19.70
2014,08,24,14,19,19.70
2014,08,24,14,20,19.70
2014,08,24,14,21,19.70
2014,08,24,14,22,19.70
2014,08,24,14,23,19.70
2014,08,24,14,24,19.70
2014,08,24,14,25,19.80
2014,08,24,14,26,19.80
2014,08,24,14,27,19.80
2014,08,24,14,28,19.90
2014,08,24,14,29,19.90
2014,08,24,14,30,20.00
2014,08,24,14,31,20.00
2014,08,24,14,32,20.10
2014,08,24,14,33,20.10
2014,08,24,14,34,20.10
2014,08,24,14,35,20.10
2014,08,24,14,36,20.00
2014,08,24,14,37,20.00
2014,08,24,14,38,19.90
2014,08,24,14,39,19.80
2014,08,24,14,40,19.70
2014,08,24,14,41,19.70
2014,08,24,14,42,19.70
2014,08,24,14,43,19.70
2014,08,24,14,44,19.80
2014,08,24,14,45,19.80
2014,08,24,14,46,19.80
2014,08,24,14,47,19.80
2014,08,24,14,48,19.70
2014,08,24,14,49,19.60
2014,08,24,14,50,19.60
2014,08,24,14,51,19.60
2014,08,24,14,52,19.60
2014,08,24,14,53,19.60
2014,08,24,14,54,19.60
2014,08,24,14,55,19.60
2014,08,24,14,56,19.60
2014,08,24,14,57,19.60
2014,08,24,14,58,19.60
2014,08,24,14,59,19.60
2014,08,24,15,00,19.60
2014,08,24,15,01,19.60
2014,08,24,15,02,19.60
2014,08,24,15,03,19.50
2014,08,24,15,04,19.50
2014,08,24,15,05,19.40
2014,08,24,15,06,19.40
2014,08,24,15,07,19.40
2014,08,24,15,08,19.40
2014,08,24,15,09,19.40
2014,08,24,15,10,19.40
2014,08,24,15,11,19.40
2014,08,24,15,12,19.30
2014,08,24,15,13,19.30
2014,08,24,15,14,19.30
2014,08,24,15,15,19.30
2014,08,24,15,16,19.30
2014,08,24,15,17,19.20
2014,08,24,15,18,19.30
2014,08,24,15,19,19.20
2014,08,24,15,20,19.20
2014,08,24,15,21,19.20
2014,08,24,15,22,19.20
2014,08,24,15,23,19.20
2014,08,24,15,24,19.20
2014,08,24,15,25,19.20
2014,08,24,15,26,19.30
2014,08,24,15,27,19.40
2014,08,24,15,28,19.40
2014,08,24,15,29,19.40
2014,08,24,15,30,19.40
2014,08,24,15,31,19.40
2014,08,24,15,32,19.40
2014,08,24,15,33,19.40
2014,08,24,15,34,19.30
2014,08,24,15,35,19.30
2014,08,24,15,36,19.30
2014,08,24,15,37,19.30
2014,08,24,15,38,19.30
2014,08,24,15,39,19.40
2014,08,24,15,40,19.40
2014,08,24,15,41,19.50
2014,08,24,15,42,19.50
2014,08,24,15,43,19.60
2014,08,24,15,44,19.60
2014,08,24,15,45,19.60
2014,08,24,15,46,19.50
2014,08,24,15,47,19.40
2014,08,24,15,48,19.40
2014,08,24,15,49,19.40
2014,08,24,15,50,19.40
2014,08,24,15,51,19.40
2014,08,24,15,52,19.40
2014,08,24,15,53,19.50
2014,08,24,15,54,19.50
2014,08,24,15,55,19.50
2014,08,24,15,56,19.50
2014,08,24,15,57,19.50
2014,08,24,15,58,19.50
2014,08,24,15,59,19.50
2014,08,24,16,00,19.40
2014,08,24,16,01,19.40
2014,08,24,16,02,19.40
2014,08,24,16,03,19.40
2014,08,24,16,04,19.40
2014,08,24,16,05,19.40
2014,08,24,16,06,19.40
2014,08,24,16,07,19.40
2014,08,24,16,08,19.50
2014,08,24,16,09,19.50
2014,08,24,16,10,19.60
2014,08,24,16,11,19.60
2014,08,24,16,12,19.60
2014,08,24,16,13,19.70
2014,08,24,16,14,19.60
2014,08,24,16,15,19.60
2014,08,24,16,16,19.60
2014,08,24,16,17,19.50
2014,08,24,16,18,19.40
2014,08,24,16,19,19.40
2014,08,24,16,20,19.40
2014,08,24,16,21,19.50
2014,08,24,16,22,19.50
2014,08,24,16,23,19.60
2014,08,24,16,24,19.60
2014,08,24,16,25,19.60
2014,08,24,16,26,19.60
2014,08,24,16,27,19.60
2014,08,24,16,28,19.70
2014,08,24,16,29,19.70
2014,08,24,16,30,19.80
2014,08,24,16,31,19.80
2014,08,24,16,32,19.90
2014,08,24,16,33,19.90
2014,08,24,16,34,19.90
2014,08,24,16,35,19.90
2014,08,24,16,36,20.00
2014,08,24,16,37,20.10
2014,08,24,16,38,20.10
2014,08,24,16,39,20.00
2014,08,24,16,40,20.00
2014,08,24,16,41,19.90
2014,08,24,16,42,19.90
2014,08,24,16,43,20.00
2014,08,24,16,44,20.00
2014,08,24,16,45,20.10
2014,08,24,16,46,20.20
2014,08,24,16,47,20.30
2014,08,24,16,48,20.30
2014,08,24,16,49,20.30
2014,08,24,16,50,20.40
2014,08,24,16,51,20.40
2014,08,24,16,52,20.30
2014,08,24,16,53,20.30
2014,08,24,16,54,20.30
2014,08,24,16,55,20.30
2014,08,24,16,56,20.30
2014,08,24,16,57,20.30
2014,08,24,16,58,20.30
2014,08,24,16,59,20.40
2014,08,24,17,00,20.40
2014,08,24,17,01,20.40
2014,08,24,17,02,20.40
2014,08,24,17,03,20.40
2014,08,24,17,04,20.30
2014,08,24,17,05,20.40
2014,08,24,17,06,20.40
2014,08,24,17,07,20.40
2014,08,24,17,08,20.40
2014,08,24,17,09,20.40
2014,08,24,17,10,20.30
2014,08,24,17,11,20.30
2014,08,24,17,12,20.30
2014,08,24,17,13,20.30
2014,08,24,17,14,20.30
2014,08,24,17,15,20.40
2014,08,24,17,16,20.40
2014,08,24,17,17,20.40
2014,08,24,17,18,20.50
2014,08,24,17,19,20.50